Temperature
-0 -0 -0 -0 -0 -1 -1 -1 -1 -1 -1 -1 -1 -1 -1 -1 -1 -1 -1 -0 -0 -0 -0 0 0 0 0 0 0 0 1 0 0 1 1 1 1 1 2 2 2 2 3
-1 -1 -1 -1 -1 -1 -1 -1 -1 -1 -1 -1 -1 -1 -1 -1 -1 -1 -1 -1 -1 -1 -1 -0 -0 -0 -0 -0 -0 -0 0 0 -0 0 0 0 1 1 1 1 1 2 2
-1 -1 -1 -1 -1 -1 -1 -2 -2 -1 -2 -2 -2 -2 -2 -1 -1 -1 -1 -1 -1 -1 -1 -1 -1 -1 -1 -1 -1 -1 -1 -0 -0 -0 -0 -0 0 0 0 1 1 1 1
-1 -1 -2 -2 -2 -2 -2 -2 -2 -2 -2 -2 -2 -2 -2 -2 -2 -2 -2 -2 -1 -1 -1 -1 -1 -1 -1 -1 -1 -1 -1 -1 -1 -1 -1 -1 -1 -0 -0 -0 -0 -0 0
-2 -2 -2 -2 -2 -2 -2 -3 -2 -2 -2 -2 -2 -2 -2 -2 -2 -2 -2 -2 -2 -2 -2 -2 -2 -2 -2 -2 -2 -1 -1 -1 -1 -1 -1 -1 -1 -1 -1 -1 -1 -1 -1
-2 -2 -3 -3 -3 -3 -3 -3 -3 -3 -3 -3 -2 -3 -3 -2 -2 -2 -2 -2 -2 -2 -2 -2 -2 -2 -2 -2 -2 -2 -2 -2 -2 -2 -2 -2 -2 -1 -1 -1 -1 -1 -1
-3 -3 -3 -3 -3 -3 -3 -3 -3 -3 -3 -3 -3 -3 -3 -3 -3 -3 -3 -3 -2 -2 -2 -2 -2 -2 -2 -2 -2 -2 -2 -2 -2 -2 -2 -2 -2 -2 -2 -2 -2 -2 -2
-3 -3 -3 -3 -3 -3 -3 -4 -3 -3 -3 -3 -3 -3 -3 -3 -3 -3 -3 -3 -3 -3 -3 -3 -3 -2 -2 -2 -2 -2 -2 -2 -2 -2 -2 -2 -2 -2 -2 -2 -2 -2 -2
-4 -4 -4 -4 -4 -4 -4 -4 -4 -4 -4 -4 -3 -3 -3 -3 -3 -3 -3 -3 -3 -3 -3 -3 -3 -3 -3 -2 -2 -3 -3 -3 -2 -2 -2 -2 -2 -2 -2 -3 -3 -3 -3
-4 -4 -4 -4 -4 -4 -4 -4 -4 -4 -4 -4 -4 -4 -4 -4 -3 -3 -3 -3 -3 -3 -3 -3 -3 -3 -3 -3 -3 -3 -3 -3 -3 -3 -3 -3 -3 -3 -3 -3 -3 -3 -3
-4 -4 -4 -4 -4 -4 -4 -4 -4 -4 -4 -4 -4 -4 -4 -4 -4 -4 -4 -4 -4 -3 -3 -3 -3 -3 -3 -3 -3 -3 -3 -3 -3 -3 -3 -3 -3 -3 -3 -3 -3 -3 -4
-5 -5 -5 -5 -5 -5 -5 -5 -5 -5 -5 -5 -5 -5 -4 -4 -4 -4 -4 -4 -4 -4 -3 -3 -3 -3 -3 -3 -3 -3 -3 -3 -3 -3 -4 -4 -4 -4 -4 -4 -4 -4 -4
-5 -5 -5 -5 -5 -5 -5 -5 -5 -5 -5 -5 -5 -5 -5 -5 -4 -4 -4 -4 -4 -4 -4 -4 -4 -4 -4 -4 -4 -4 -3 -3 -4 -4 -4 -4 -4 -4 -4 -4 -4 -4 -4
-5 -5 -5 -5 -6 -6 -6 -6 -6 -6 -6 -6 -6 -6 -5 -5 -5 -5 -5 -5 -4 -4 -4 -4 -4 -4 -4 -4 -4 -4 -4 -4 -4 -4 -4 -4 -4 -4 -4 -4 -4 -4 -5
-6 -6 -6 -6 -6 -6 -6 -6 -6 -6 -6 -6 -6 -6 -6 -5 -5 -5 -5 -5 -5 -5 -5 -5 -5 -5 -4 -4 -4 -4 -4 -4 -4 -4 -4 -4 -5 -5 -5 -5 -5 -5 -5
-6 -6 -6 -6 -6 -6 -6 -6 -6 -6 -6 -6 -6 -6 -6 -6 -6 -5 -5 -5 -5 -5 -5 -5 -5 -5 -5 -5 -5 -5 -5 -5 -5 -5 -5 -5 -5 -5 -5 -5 -5 -5 -5
-6 -6 -6 -7 -7 -7 -7 -7 -6 -6 -6 -6 -6 -6 -6 -6 -6 -6 -5 -5 -5 -5 -5 -5 -5 -5 -5 -5 -5 -5 -5 -5 -5 -5 -5 -5 -5 -5 -5 -5 -5 -6 -6
-7 -7 -7 -7 -7 -7 -7 -7 -7 -7 -7 -6 -6 -6 -6 -6 -6 -6 -6 -6 -6 -6 -6 -6 -5 -5 -5 -5 -5 -5 -5 -5 -5 -5 -5 -5 -6 -6 -6 -6 -6 -6 -6
-7 -7 -7 -7 -7 -7 -7 -7 -7 -7 -7 -7 -6 -6 -6 -6 -6 -6 -6 -6 -6 -6 -6 -6 -6 -6 -6 -6 -6 -6 -6 -6 -6 -6 -6 -6 -6 -6 -6 -6 -6 -6 -6
-7 -7 -7 -7 -7 -7 -7 -7 -7 -7 -7 -7 -7 -7 -7 -6 -6 -6 -6 -6 -6 -6 -6 -6 -6 -6 -6 -6 -6 -6 -6 -6 -6 -6 -6 -6 -6 -6 -6 -6 -6 -6 -6
-8 -8 -8 -8 -8 -8 -8 -8 -8 -8 -8 -7 -7 -7 -7 -7 -7 -7 -7 -7 -7 -7 -7 -6 -6 -6 -6 -6 -6 -6 -6 -6 -6 -6 -6 -6 -6 -6 -6 -6 -6 -6 -6
-8 -8 -8 -8 -8 -8 -8 -8 -8 -8 -8 -8 -7 -7 -7 -7 -7 -7 -7 -7 -7 -7 -7 -7 -7 -7 -7 -7 -7 -7 -7 -7 -7 -7 -7 -7 -7 -7 -7 -7 -7 -7 -7
-8 -8 -8 -8 -8 -8 -8 -8 -8 -8 -8 -8 -8 -8 -8 -7 -7 -7 -7 -7 -7 -7 -7 -7 -7 -7 -7 -7 -7 -7 -7 -7 -7 -7 -7 -7 -7 -7 -7 -7 -7 -7 -7
-8 -8 -8 -8 -8 -8 -8 -8 -8 -8 -8 -8 -8 -8 -8 -8 -8 -8 -7 -7 -7 -7 -7 -7 -7 -7 -7 -7 -7 -7 -7 -7 -7 -7 -7 -7 -7 -7 -7 -7 -7 -7 -7
-8 -8 -8 -8 -8 -8 -8 -8 -8 -8 -8 -8 -8 -8 -8 -8 -8 -8 -8 -8 -8 -8 -8 -7 -7 -7 -7 -7 -7 -7 -7 -7 -7 -7 -7 -7 -7 -7 -7 -7 -7 -7 -7
-8 -8 -9 -9 -9 -9 -9 -9 -9 -9 -9 -9 -8 -8 -8 -8 -8 -8 -8 -8 -8 -8 -8 -8 -7 -7 -7 -7 -7 -7 -7 -7 -7 -7 -7 -7 -7 -7 -7 -7 -7 -7 -7
Wind_Speed
2 3 3 3 3 3 3 4 4 4 4 4 4 4 4 5 4 4 4 4 4 5 4 5 5 5 4 4 4 4 4 4 6 6 5 5 5 5 4 4 4 4 4
3 3 3 3 3 3 4 4 4 4 4 4 4 4 5 5 5 5 5 5 5 5 5 5 5 4 5 4 4 5 4 5 5 7 5 4 5 5 4 4 4 4 3
2 3 3 3 3 4 4 4 4 4 4 4 4 4 4 5 5 5 5 5 5 5 5 6 6 5 5 5 5 4 4 4 5 5 6 4 4 3 3 3 4 3 3
3 3 3 4 4 4 4 4 5 4 4 4 4 5 5 5 5 5 5 5 5 5 5 6 6 6 6 6 5 4 4 4 4 5 4 4 3 3 2 3 2 2 2
2 3 4 4 4 4 4 4 4 4 4 5 5 5 5 4 4 5 5 5 5 6 6 6 6 6 7 6 5 4 4 4 4 4 4 3 3 2 2 2 2 3 3
3 3 4 3 4 4 4 4 4 4 5 4 5 5 5 4 5 6 5 5 5 5 5 5 5 5 6 7 7 6 5 5 5 4 4 4 4 4 3 2 2 2 3
3 3 4 3 4 4 4 4 4 5 5 5 5 5 5 5 5 5 6 5 5 4 5 5 4 4 5 5 6 6 6 6 6 5 5 5 5 4 3 3 3 3 3
3 3 4 4 4 4 4 5 5 5 5 5 5 5 5 5 6 6 6 5 5 5 4 5 5 5 4 4 4 4 4 4 4 4 4 5 4 4 3 3 3 3 3
3 4 4 4 4 4 5 5 5 5 5 5 5 5 5 6 6 6 6 4 4 5 5 4 5 5 5 4 4 4 4 3 3 4 4 4 3 2 2 2 2 2 2
4 4 4 4 4 5 5 5 5 4 5 5 5 5 5 5 6 6 6 4 4 4 4 4 5 5 5 5 4 4 4 3 2 1 2 2 2 2 2 2 2 2 2
4 4 4 4 4 4 4 4 4 4 4 4 5 5 5 5 6 6 6 3 4 4 4 4 3 4 5 5 4 4 4 3 3 2 1 1 1 1 1 1 2 2 3
4 4 4 4 4 4 4 4 4 4 4 4 4 5 4 4 5 5 6 6 5 4 4 4 3 3 4 4 3 2 2 2 2 1 1 1 1 1 1 1 1 1 3
4 4 4 4 4 4 4 4 4 3 3 3 4 4 4 4 4 6 6 6 6 4 4 4 3 3 3 3 2 1 2 2 2 2 2 1 1 1 0 0 1 1 2
4 4 4 4 4 4 3 3 3 3 3 3 4 4 5 4 4 4 4 4 4 3 3 3 3 3 2 2 1 1 1 1 2 2 2 1 1 0 0 1 1 1 1
4 4 4 4 4 3 3 3 4 4 4 4 4 4 5 5 5 6 4 3 3 2 2 2 1 1 1 0 1 1 1 1 2 1 1 1 1 1 1 1 1 1 1
3 3 3 3 3 3 3 4 4 5 6 6 6 6 5 6 7 6 5 4 3 2 2 1 1 1 1 1 1 1 1 1 1 1 2 2 1 1 1 0 1 1 1
3 3 3 3 3 3 3 4 4 4 5 5 6 7 6 6 6 5 4 3 3 2 1 2 2 1 1 1 1 1 1 1 1 2 2 2 1 1 1 1 1 1 1
3 4 3 3 3 3 3 4 4 4 4 4 4 6 6 5 5 4 3 2 1 1 1 2 1 1 1 1 1 1 1 1 1 1 1 1 2 1 1 1 1 1 1
3 3 3 3 3 3 3 3 3 4 4 4 4 4 5 4 3 3 2 1 2 2 2 2 2 1 1 1 1 1 1 1 1 1 1 1 2 2 1 1 1 1 1
3 4 4 3 3 3 3 3 3 3 3 3 3 4 3 3 2 2 2 2 2 2 2 2 2 2 1 1 1 1 1 1 1 1 1 1 1 1 2 1 1 1 1
3 3 4 3 3 3 3 3 3 3 3 3 4 4 4 2 2 2 2 2 2 2 2 2 2 2 2 1 1 1 2 1 1 2 2 2 2 1 1 1 1 1 1
3 3 3 3 3 3 3 3 3 3 4 4 4 3 4 3 2 2 2 2 2 2 2 2 2 2 2 2 2 2 2 2 2 2 2 2 2 2 1 1 1 1 1
3 3 3 3 3 3 3 3 3 3 3 3 3 3 3 2 2 2 2 2 2 2 2 2 2 2 2 2 3 3 3 3 3 3 2 2 2 2 2 2 2 2 1
3 3 3 3 3 3 3 3 3 3 3 3 3 3 3 3 3 3 3 2 2 2 2 2 2 2 3 2 2 2 3 3 3 3 4 3 2 2 2 2 2 2 1
2 3 3 3 3 3 3 3 3 3 3 3 3 3 3 3 3 3 2 2 2 2 2 2 2 2 3 3 3 3 3 3 3 3 4 3 3 2 2 2 2 2 2
2 3 3 3 3 3 3 3 3 3 3 3 3 3 3 3 3 3 2 2 2 2 2 2 2 3 3 3 3 3 3 3 4 4 3 3 2 2 2 2 2 2 2
Wind_Direction
290 293 292 296 296 293 293 295 297 295 293 291 289 289 288 285 279 271 267 265 262 266 267 261 259 263 266 265 264 264 264 265 269 283 285 283 283 286 291 293 296 298 295
285 288 291 299 297 299 302 304 306 300 295 294 289 286 282 280 278 269 265 264 259 259 260 262 262 263 261 264 264 261 263 264 266 276 283 283 280 278 286 294 299 295 289
279 284 290 295 300 301 303 305 305 302 296 294 289 286 285 283 281 274 265 263 260 258 257 258 261 263 261 263 263 265 268 270 265 266 275 281 282 280 286 292 291 291 301
278 280 288 295 299 300 299 302 302 301 302 295 288 283 281 281 279 278 274 266 261 261 262 261 261 260 262 264 262 260 265 269 266 260 265 279 286 289 284 290 297 312 316
278 286 292 298 299 300 296 298 302 300 299 297 292 288 282 277 276 279 280 274 267 266 264 264 264 264 267 269 267 263 257 256 257 256 262 270 276 286 274 278 287 310 325
277 287 299 299 297 298 301 298 297 298 300 297 292 291 290 286 293 292 294 290 278 271 272 272 270 259 263 265 264 264 257 250 251 252 254 262 273 279 273 264 273 303 313
281 286 292 295 300 301 302 296 296 294 295 293 290 288 287 290 294 292 300 296 285 274 273 274 274 269 267 264 259 258 254 250 250 249 248 256 269 270 266 263 273 290 301
276 281 284 288 292 300 300 293 290 291 290 289 289 288 287 295 299 291 293 284 282 278 274 274 275 274 268 267 263 264 269 264 252 246 243 254 267 270 258 258 273 295 307
278 281 285 284 286 290 293 294 293 291 289 290 289 287 289 296 299 298 289 281 279 281 280 274 272 274 275 263 257 258 265 271 256 242 244 250 263 263 245 243 250 258 290
283 285 287 284 284 282 285 290 295 294 293 297 294 290 289 295 300 298 292 281 281 286 286 279 270 274 273 259 253 249 252 264 257 265 249 243 244 232 220 239 247 248 279
292 290 289 285 283 282 286 290 292 293 297 299 299 299 298 302 302 297 297 288 284 283 282 284 287 291 280 270 257 248 250 256 236 228 225 229 229 225 217 242 255 253 260
295 292 291 290 288 286 285 288 290 291 293 297 300 303 303 304 302 300 296 292 291 280 277 281 289 293 282 275 268 262 252 251 220 208 215 218 217 234 248 257 266 285 288
297 294 296 299 294 287 281 283 287 288 286 290 293 298 301 302 301 299 296 295 292 281 278 289 294 288 275 270 280 261 244 230 203 209 223 233 242 236 228 289 334 345 334
298 298 299 297 296 294 287 281 280 279 282 287 290 294 297 296 300 305 300 297 295 286 284 285 277 273 273 268 257 228 226 213 203 213 224 235 223 203 223 263 295 336 357
299 299 301 296 293 297 295 291 284 279 280 281 283 286 288 291 302 311 307 299 296 298 295 284 284 295 299 286 234 211 210 191 187 197 201 198 199 219 244 262 268 283 291
297 298 299 299 301 300 301 303 294 282 290 287 288 291 292 294 306 313 311 309 311 301 284 254 262 274 281 260 238 229 212 197 190 194 196 197 208 218 229 268 257 255 266
293 297 300 301 301 301 301 302 309 309 294 286 289 293 293 298 304 312 313 306 299 291 261 260 257 256 256 249 238 226 227 213 192 192 198 204 208 213 219 232 242 255 288
295 294 294 294 296 296 293 293 296 302 309 314 309 304 302 296 300 306 309 307 296 301 286 271 267 264 256 249 246 237 219 198 193 196 199 201 197 200 211 226 244 249 287
294 295 297 295 293 292 294 293 295 297 301 307 315 322 321 308 307 317 312 291 283 294 296 289 280 268 252 244 246 235 217 211 211 209 208 208 201 200 213 231 243 256 285
288 295 300 296 294 294 294 294 296 298 301 305 308 314 325 325 318 322 318 304 288 287 290 292 288 278 266 256 245 231 224 222 212 210 212 210 207 209 219 232 241 258 274
292 296 300 297 295 295 292 290 290 291 294 297 301 307 315 305 300 301 300 296 286 285 285 285 283 278 271 263 250 237 234 234 229 215 210 209 206 211 222 228 237 250 264
285 290 295 294 292 287 287 285 285 287 291 292 298 303 306 294 289 291 293 294 292 284 281 279 277 276 271 258 247 241 240 238 233 221 212 205 202 203 207 215 227 247 247
275 283 290 291 289 289 289 288 286 287 290 292 296 297 295 291 290 290 289 291 292 288 284 277 274 278 277 264 250 247 245 243 238 227 211 206 207 210 209 214 220 231 241
272 276 282 286 288 289 293 295 294 292 292 292 293 294 292 291 290 290 290 288 289 288 290 286 279 279 280 280 273 258 249 238 226 218 208 206 209 211 212 217 221 220 224
280 280 282 284 285 288 292 296 296 295 292 291 290 290 291 294 295 293 288 286 288 289 290 290 287 282 279 283 285 278 255 229 220 213 201 201 201 206 210 214 214 212 214
276 281 283 285 284 284 285 289 292 294 293 292 289 287 286 286 288 290 288 284 284 284 286 287 295 296 293 287 283 274 256 228 215 209 203 198 200 204 205 209 205 207 201
Height
1487 1486 1485 1484 1483 1482 1481 1480 1478 1478 1477 1477 1476 1476 1475 1475 1474 1474 1474 1473 1473 1473 1472 1472 1472 1472 1471 1471 1471 1470 1470 1469 1468 1466 1465 1464 1463 1462 1462 1462 1461 1460 1460
1484 1484 1483 1481 1480 1479 1478 1477 1476 1475 1474 1474 1473 1473 1473 1472 1471 1471 1470 1470 1469 1469 1469 1468 1468 1468 1467 1467 1467 1466 1466 1465 1464 1463 1461 1460 1460 1459 1458 1458 1457 1457 1456
1481 1481 1480 1479 1478 1476 1475 1474 1473 1472 1472 1471 1471 1470 1469 1469 1468 1468 1467 1467 1466 1466 1465 1465 1464 1464 1463 1463 1463 1462 1461 1461 1460 1459 1458 1457 1456 1456 1455 1454 1454 1453 1453
1479 1478 1477 1476 1475 1474 1473 1472 1471 1470 1469 1468 1468 1467 1466 1465 1465 1464 1464 1463 1463 1462 1461 1461 1461 1460 1460 1459 1459 1458 1458 1457 1457 1456 1455 1454 1453 1452 1452 1452 1451 1451 1450
1476 1475 1474 1473 1472 1471 1470 1469 1468 1467 1466 1465 1464 1464 1463 1462 1462 1461 1461 1460 1459 1458 1458 1457 1457 1456 1456 1455 1455 1455 1454 1454 1453 1453 1452 1451 1450 1450 1449 1449 1448 1448 1447
1473 1472 1471 1470 1469 1468 1467 1466 1465 1464 1464 1463 1462 1461 1460 1459 1459 1458 1458 1457 1456 1455 1454 1453 1453 1452 1452 1451 1451 1451 1451 1451 1450 1449 1449 1448 1448 1447 1447 1447 1446 1445 1445
1471 1470 1469 1468 1466 1465 1464 1463 1463 1462 1461 1460 1459 1458 1457 1456 1456 1455 1455 1454 1453 1452 1451 1450 1449 1449 1449 1448 1448 1448 1447 1447 1447 1446 1445 1445 1445 1445 1445 1444 1444 1444 1443
1468 1467 1466 1465 1464 1463 1462 1461 1460 1459 1458 1457 1456 1455 1454 1453 1453 1452 1452 1451 1450 1449 1448 1447 1447 1446 1446 1445 1445 1444 1444 1443 1443 1443 1443 1443 1443 1443 1443 1443 1442 1442 1442
1465 1464 1464 1462 1461 1460 1459 1458 1457 1457 1455 1454 1453 1452 1451 1450 1450 1449 1449 1448 1447 1446 1445 1445 1444 1443 1443 1442 1442 1441 1440 1440 1440 1440 1440 1440 1440 1440 1440 1440 1440 1440 1439
1463 1462 1461 1460 1458 1457 1456 1456 1455 1454 1453 1452 1450 1449 1448 1448 1447 1446 1446 1445 1444 1443 1442 1441 1441 1440 1440 1439 1439 1438 1437 1438 1438 1438 1438 1438 1438 1438 1438 1438 1438 1438 1437
1460 1459 1458 1457 1456 1455 1454 1453 1452 1451 1450 1449 1448 1447 1446 1445 1444 1444 1443 1442 1441 1440 1439 1438 1438 1437 1436 1436 1436 1436 1435 1435 1435 1435 1435 1435 1436 1436 1436 1436 1436 1436 1436
1457 1456 1455 1454 1453 1452 1451 1450 1449 1448 1447 1446 1445 1444 1443 1442 1441 1441 1440 1439 1438 1437 1436 1436 1435 1434 1434 1433 1433 1433 1433 1433 1433 1433 1433 1433 1433 1433 1433 1434 1434 1434 1434
1455 1454 1452 1451 1451 1450 1448 1447 1446 1445 1444 1443 1442 1441 1440 1439 1438 1438 1437 1436 1435 1434 1433 1433 1432 1431 1431 1430 1430 1430 1431 1431 1431 1431 1431 1431 1431 1431 1431 1431 1431 1431 1431
1452 1451 1450 1449 1448 1447 1446 1445 1444 1443 1441 1440 1439 1438 1437 1436 1435 1435 1434 1433 1432 1431 1430 1430 1429 1429 1428 1428 1428 1428 1428 1429 1429 1429 1429 1429 1429 1429 1429 1429 1429 1429 1429
1450 1449 1447 1446 1446 1444 1443 1442 1441 1440 1439 1438 1437 1436 1435 1434 1433 1432 1431 1430 1429 1429 1428 1427 1427 1426 1426 1426 1426 1426 1427 1427 1427 1427 1427 1427 1427 1427 1428 1428 1428 1428 1427
1448 1447 1446 1444 1443 1442 1441 1440 1438 1437 1436 1435 1434 1434 1433 1432 1431 1430 1429 1428 1427 1427 1426 1425 1425 1424 1424 1424 1424 1424 1425 1425 1425 1425 1425 1425 1426 1426 1426 1426 1427 1426 1426
1446 1445 1444 1442 1441 1440 1439 1437 1436 1435 1434 1433 1432 1431 1430 1429 1428 1427 1426 1426 1426 1425 1424 1423 1423 1423 1423 1423 1423 1423 1423 1424 1424 1424 1424 1424 1424 1425 1425 1425 1425 1425 1425
1444 1443 1442 1440 1439 1438 1437 1435 1434 1433 1431 1430 1429 1428 1428 1427 1426 1425 1424 1424 1423 1423 1422 1422 1422 1422 1422 1422 1422 1422 1422 1422 1423 1423 1423 1423 1423 1423 1423 1424 1424 1424 1424
1442 1441 1440 1438 1437 1436 1435 1434 1432 1431 1430 1428 1427 1426 1425 1424 1424 1423 1423 1422 1421 1421 1421 1420 1420 1420 1420 1420 1421 1421 1421 1421 1421 1421 1421 1421 1422 1422 1422 1422 1423 1422 1423
1440 1439 1438 1436 1435 1434 1433 1431 1430 1429 1428 1426 1425 1424 1423 1422 1421 1421 1420 1420 1420 1419 1419 1419 1419 1419 1419 1419 1419 1419 1419 1419 1420 1420 1420 1420 1420 1421 1421 1421 1421 1421 1421
1438 1437 1436 1435 1433 1432 1431 1429 1428 1427 1426 1425 1424 1423 1422 1421 1420 1419 1419 1418 1418 1418 1418 1418 1417 1417 1417 1417 1417 1418 1418 1418 1418 1418 1418 1419 1419 1419 1420 1420 1420 1420 1420
1437 1435 1434 1433 1431 1430 1429 1428 1426 1425 1424 1423 1422 1421 1421 1420 1419 1418 1417 1417 1417 1416 1416 1416 1416 1416 1416 1416 1416 1416 1416 1416 1416 1417 1417 1417 1418 1418 1418 1419 1419 1419 1419
1435 1434 1432 1431 1429 1428 1427 1426 1424 1423 1422 1421 1420 1420 1419 1418 1417 1416 1416 1416 1415 1415 1415 1414 1414 1414 1414 1414 1414 1414 1414 1414 1415 1415 1415 1416 1416 1416 1417 1417 1418 1418 1418
1433 1431 1430 1429 1427 1426 1425 1424 1422 1421 1420 1419 1419 1418 1417 1416 1415 1415 1414 1414 1413 1413 1413 1413 1413 1413 1412 1412 1412 1412 1412 1413 1413 1413 1414 1414 1415 1415 1416 1416 1416 1417 1417
1430 1429 1428 1427 1426 1424 1423 1422 1421 1419 1418 1417 1417 1416 1415 1414 1413 1413 1412 1412 1412 1412 1411 1411 1411 1411 1411 1410 1410 1410 1410 1411 1411 1412 1412 1413 1414 1414 1414 1415 1415 1415 1416
1428 1427 1426 1425 1424 1422 1421 1420 1419 1418 1417 1416 1415 1414 1413 1412 1412 1411 1411 1410 1410 1410 1410 1409 1409 1409 1409 1408 1408 1408 1409 1409 1409 1410 1411 1411 1412 1413 1413 1414 1414 1414 1415